Terminal Aerodrome Forecast
Issued by NWS

Home | Current Version | Previous Version | Graphics & Text | Print | Product List | Glossary On
Versions: 1 2 3 4 5 6 7 8 9 10 11 12 13 14 15 16 17 18 19 20 21 22
000
FTUS43 KTOP 280520
TAFMHK
TAF
KMHK 280520Z 2806/2906 24007KT P6SM SCT030 SCT100
     FM281600 31007KT P6SM SCT050 BKN250
     FM290000 02005KT P6SM BKN120=

USA.gov is the U.S. government's official web portal to all federal, state and local government web resources and services.